This demonstration page uses our WeatherBlox Daily Observations layout. Learn more.

Hourly Observations for August 22, 2019

Temp ( °F °C ) Dew Point ( °F °C ) Humidity (%) Winds ( mph kmh ) Pressure ( in mb ) Visibility ( mi km ) Precip ( " mm )
12:15 am 00:15 Clear 64 17.7 64 17.7 100 100 ESE 6 9 30.03 1017 10 16.09344 0 0
12:35 am 00:35 Mostly Cloudy 64 17.5 64 17.5 100 100 E 6 9 30.03 1017 7 11.265408 0 0
12:55 am 00:55 Mostly Cloudy 64 17.5 64 17.5 100 100 E 5 7 30.03 1017 7 11.265408 0 0
1:15 am 01:15 Partly Cloudy with Mist and Fog 63 17.3 63 17.3 100 100 E 5 7 30 1016 5 8.04672 0 0
1:35 am 01:35 Clear with Mist and Fog 62 16.9 62 16.9 100 100 NE 5 7 30 1016 4 6.437376 0 0
1:55 am 01:55 Mostly Cloudy with Mist and Fog 62 16.6 62 16.6 100 100 Calm 30 1016 3 4.828032 0 0
2:15 am 02:15 Cloudy with Mist and Fog 63 17.1 63 17.1 100 100 Calm 30 1016 0.75 1.207008 0 0
2:35 am 02:35 Cloudy with Fog 63 17.2 63 17.2 100 100 ENE 5 7 30 1016 0.25 0.402336 0 0
2:55 am 02:55 Cloudy with Fog 63 17.3 63 17.3 100 100 E 3 6 30 1016 0.25 0.402336 0 0
3:15 am 03:15 Cloudy with Fog 63 17.3 63 17.3 100 100 ENE 3 6 30 1016 0.25 0.402336 0 0
3:35 am 03:35 Cloudy with Fog 63 17.3 63 17.3 100 100 ENE 3 6 30 1016 0.25 0.402336 0 0
3:55 am 03:55 Cloudy with Light Rain 64 17.6 64 17.6 100 100 E 5 7 30 1016 0.25 0.402336 0 0
4:15 am 04:15 Cloudy with Fog 64 17.6 64 17.6 100 100 E 5 7 30 1016 0.25 0.402336 0 0
4:35 am 04:35 Cloudy with Fog 64 17.5 64 17.5 100 100 E 5 7 30 1016 0.25 0.402336 0 0
4:55 am 04:55 Cloudy with Fog 64 17.5 64 17.5 100 100 ENE 6 9 30 1016 0.5 0.804672 0 0
5:15 am 05:15 Cloudy with Mist and Fog 64 17.5 64 17.5 100 100 E 6 9 30 1016 0.75 1.207008 0 0
5:35 am 05:35 Cloudy with Mist and Fog 64 17.6 64 17.6 100 100 E 8 13 29.97 1015 1 1.609344 0 0
5:55 am 05:55 Cloudy with Mist and Fog 64 17.6 64 17.6 100 100 E 9 15 30 1016 1 1.609344 0 0
6:15 am 06:15 Cloudy with Mist and Fog 64 17.5 64 17.5 100 100 E 9 15 30 1016 1 1.609344 0 0
6:35 am 06:35 Cloudy with Mist and Fog 64 17.5 64 17.5 100 100 E 8 13 30 1016 2 3.218688 0 0
6:55 am 06:55 Cloudy with Mist and Fog 64 17.5 64 17.5 100 100 ESE 7 11 30 1016 2.5 4.02336 0 0
7:15 am 07:15 Cloudy with Mist and Fog 64 17.5 64 17.5 100 100 ESE 6 9 30 1016 4 6.437376 0 0
7:35 am 07:35 Cloudy with Mist and Fog 64 17.7 64 17.7 100 100 ESE 7 11 30 1016 3 4.828032 0 0
7:55 am 07:55 Cloudy with Mist and Fog 64 17.8 64 17.8 100 100 ESE 5 7 30 1016 3 4.828032 0 0
8:15 am 08:15 Cloudy with Mist and Fog 64 18 64 18 100 100 E 6 9 30 1016 2 3.218688 0 0
8:35 am 08:35 Cloudy with Nearby Thunderstorms 65 18.2 65 18.2 100 100 E 8 13 30 1016 1.75 2.816352 0 0
8:55 am 08:55 Cloudy with Mist and Fog 65 18.3 65 18.3 100 100 ESE 7 11 30 1016 1 1.609344 0 0
9:15 am 09:15 Cloudy with Mist and Fog 65 18.3 65 18.3 100 100 E 7 11 30 1016 1 1.609344 0 0
9:35 am 09:35 Cloudy with Fog 65 18.5 65 18.5 100 100 ESE 7 11 30 1016 0.5 0.804672 0 0
9:55 am 09:55 Cloudy with Mist and Fog 65 18.6 65 18.6 100 100 ESE 8 13 30 1016 1 1.609344 0 0
10:15 am 10:15 Cloudy with Mist and Fog 66 18.7 66 18.7 100 100 E 7 11 30 1016 1 1.609344 0 0
10:35 am 10:35 Cloudy with Mist and Fog 66 19.1 66 19.1 100 100 E 9 15 29.97 1015 2 3.218688 0 0
10:55 am 10:55 Cloudy with Mist and Fog 67 19.6 67 19.6 100 100 ESE 20 31 29.91 1013 4 6.437376 0 0
11:15 am 11:15 Cloudy with Mist and Fog 67 19.5 67 19.5 100 100 ESE 17 28 29.91 1013 4 6.437376 0 0
11:35 am 11:35 Cloudy with Mist and Fog 67 19.5 67 19.5 100 100 ESE 13 20 29.97 1015 4 6.437376 0 0
11:55 am 11:55 Cloudy with Mist and Fog 68 19.8 68 19.8 100 100 SE 14 22 29.94 1014 3 4.828032 0 0
12:15 pm 12:15 Cloudy with Mist and Fog 69 20.5 68 20 97 97 SE 12 19 29.94 1014 5 8.04672 0 0
12:35 pm 12:35 Cloudy with Mist and Fog 68 20 68 20 100 100 SE 13 20 29.94 1014 2.5 4.02336 0 0
12:55 pm 12:55 Cloudy with Mist and Fog 69 20.3 68 20 98 98 SE 8 13 29.94 1014 5 8.04672 0 0
1:15 pm 13:15 Cloudy with Mist and Fog 69 20.8 68 20.2 96 96 SSE 6 9 29.94 1014 5 8.04672 0 0
1:35 pm 13:35 Cloudy with Mist and Fog 69 20.8 69 20.5 98 98 SE 13 20 29.91 1013 4 6.437376 0 0
1:55 pm 13:55 Cloudy with Nearby Thunderstorms 69 20.6 69 20.5 99 99 SE 13 20 29.91 1013 2 3.218688 0 0
2:15 pm 14:15 Cloudy 69 20.6 69 20.6 100 100 SE 13 20 29.91 1013 3 4.828032 0.03 0.762
2:35 pm 14:35 Cloudy 69 20.5 69 20.5 100 100 ESE 7 11 29.91 1013 4 6.437376 0.03 0.762
2:55 pm 14:55 Cloudy with Nearby Thunderstorms 69 20.6 69 20.6 100 100 E 5 7 29.94 1014 7 11.265408 0.03 0.762
3:15 pm 15:15 Cloudy with Thunderstorms 71 21.7 70 21.2 97 97 E 3 6 29.91 1013 7 11.265408 0 0
3:35 pm 15:35 Cloudy with Nearby Thunderstorms 72 22.2 69 20.5 90 90 SSE 3 6 29.91 1013 10 16.09344 0 0
3:55 pm 15:55 Cloudy 73 22.5 69 20.5 89 89 SSE 3 6 29.91 1013 10 16.09344 0 0
4:15 pm 16:15 Cloudy with Nearby Thunderstorms 73 22.6 70 20.9 90 90 SSE 8 13 29.91 1013 10 16.09344 0 0
4:35 pm 16:35 Mostly Cloudy with Nearby Thunderstorms 75 23.8 69 20.4 81 81 SSE 6 9 29.88 1012 10 16.09344 0 0
4:55 pm 16:55 Mostly Cloudy 75 24.1 70 20.9 82 82 SE 13 20 29.85 1011 10 16.09344 0 0
5:15 pm 17:15 Cloudy 74 23.1 69 20.3 84 84 ESE 14 22 29.85 1011 10 16.09344 0 0
5:35 pm 17:35 Mostly Cloudy 74 23.4 69 20.8 85 85 ESE 9 15 29.85 1011 10 16.09344 0 0
5:55 pm 17:55 Partly Cloudy 74 23.5 69 20.8 85 85 ESE 12 19 29.85 1011 10 16.09344 0 0
6:15 pm 18:15 Partly Cloudy 75 23.7 69 20.8 84 84 ESE 10 17 29.85 1011 10 16.09344 0 0
6:35 pm 18:35 Partly Cloudy 75 23.7 69 20.6 83 83 E 10 17 29.85 1011 10 16.09344 0 0
6:55 pm 18:55 Mostly Cloudy 73 22.6 68 19.8 84 84 E 10 17 29.88 1012 10 16.09344 0 0
7:15 pm 19:15 Partly Cloudy with Nearby Thunderstorms 73 22.6 67 19.7 84 84 ESE 8 13 29.83 1010 10 16.09344 0 0
7:35 pm 19:35 Sunny 72 22.1 65 18.6 81 81 E 8 13 29.85 1011 10 16.09344 0 0
7:55 pm 19:55 Partly Cloudy with Nearby Thunderstorms 71 21.5 66 18.7 84 84 ESE 6 9 29.88 1012 10 16.09344 0 0
8:15 pm 20:15 Sunny with Thunderstorms 69 20.6 67 19.3 92 92 ENE 6 9 29.88 1012 10 16.09344 0 0
8:35 pm 20:35 Partly Cloudy 68 20 67 19.2 95 95 ENE 6 9 29.91 1013 10 16.09344 0 0
8:55 pm 20:55 Mostly Cloudy 68 20.1 67 19.7 98 98 E 6 9 29.91 1013 10 16.09344 0 0
9:15 pm 21:15 Mostly Cloudy 68 20.1 68 20 99 99 E 6 9 29.91 1013 10 16.09344 0 0
9:35 pm 21:35 Cloudy 68 20.2 68 20 99 99 E 5 7 29.94 1014 10 16.09344 0 0
9:55 pm 21:55 Cloudy 68 20.2 68 20 99 99 E 6 9 29.94 1014 10 16.09344 0 0
10:15 pm 22:15 Cloudy 68 20 67 19.7 98 98 E 7 11 29.94 1014 10 16.09344 0 0
10:35 pm 22:35 Partly Cloudy 67 19.5 67 19.4 99 99 E 7 11 29.91 1013 10 16.09344 0 0
10:55 pm 22:55 Clear 67 19.3 67 19.2 99 99 E 7 11 29.94 1014 7 11.265408 0 0
11:15 pm 23:15 Clear 66 19.1 66 19 99 99 E 7 11 29.94 1014 10 16.09344 0 0
11:35 pm 23:35 Clear 66 19.1 66 19 99 99 ESE 6 9 29.94 1014 10 16.09344 0 0
11:55 pm 23:55 Mostly Cloudy 67 19.3 67 19.2 99 99 ESE 6 9 29.97 1015 10 16.09344 0 0

Powered by AerisWeather